This is the latest recevied weather packets stored in our database for station/object AA6HF. If no packets are shown the sender has not sent any weather packets the latest 10 day(s).
| Time | Temp. | Humidity | Pressure | Rain* | Wind** | Luminosity | Snow |
|---|---|---|---|---|---|---|---|
| 1788123509 | 41.11° C | 19% | 1006.1 hPa | 0 mm | - | - | - |
| 1788123209 | 41.11° C | 18% | 1006.3 hPa | 0 mm | - | - | - |
| 1788122909 | 41.11° C | 19% | 1006.4 hPa | 0 mm | - | - | - |
| 1788122609 | 41.11° C | 19% | 1006.5 hPa | 0 mm | - | - | - |
| 1788122309 | 41.11° C | 16% | 1006.7 hPa | 0 mm | - | - | - |
| 1788122009 | 41.11° C | 18% | 1006.7 hPa | 0 mm | - | - | - |
| 1788121709 | 40.56° C | 19% | 1006.7 hPa | 0 mm | - | - | - |
| 1788121409 | 41.11° C | 19% | 1006.7 hPa | 0 mm | - | - | - |
| 1788121109 | 41.11° C | 19% | 1006.7 hPa | 0 mm | - | - | - |
| 1788120809 | 40.56° C | 18% | 1006.8 hPa | 0 mm | - | - | - |
| 1788120509 | 40.56° C | 18% | 1006.9 hPa | 0 mm | - | - | - |
| 1788120209 | 41.11° C | 18% | 1007 hPa | 0 mm | - | - | - |
| 1788119909 | 41.11° C | 19% | 1007.1 hPa | 0 mm | - | - | - |
| 1788119610 | 40.56° C | 19% | 1007.1 hPa | 0 mm | - | - | - |
| 1788119322 | 40° C | 20% | 1007.1 hPa | 0 mm | - | - | - |
| 1788119009 | 40° C | 20% | 1007.2 hPa | 0 mm | - | - | - |
| 1788118710 | 40.56° C | 18% | 1007.2 hPa | 0 mm | - | - | - |
| 1788118410 | 41.11° C | 18% | 1007.3 hPa | 0 mm | - | - | - |
| 1788118110 | 41.11° C | 18% | 1007.5 hPa | 0 mm | - | - | - |
| 1788117810 | 40.56° C | 19% | 1007.5 hPa | 0 mm | - | - | - |
| 1788117510 | 40° C | 19% | 1007.6 hPa | 0 mm | - | - | - |
| 1788117210 | 39.44° C | 20% | 1007.5 hPa | 0 mm | - | - | - |
| 1788116910 | 38.89° C | 19% | 1007.6 hPa | 0 mm | - | - | - |
| 1788116610 | 39.44° C | 19% | 1007.7 hPa | 0 mm | - | - | - |
| 1788116310 | 40° C | 18% | 1007.7 hPa | 0 mm | - | - | - |
* Rain latest hour (hover to see other rain measurements)
** Current wind speed in m/s (hover to see current wind gust speed)